Overview Statistics Trail Chart Weather Telemetry Raw packets
 

This is the latest recevied weather packets stored in our database for station/object WI0K. If no packets are shown the sender has not sent any weather packets the latest 10 day(s).

<< 96 97 98 99 100 101 102 >>
Time Temp. Humidity Pressure Rain* Wind** Luminosity Snow
1787952014 32.22° C 26% 1019.4 hPa 0 mm - 101 W/m² -
1787951713 31.67° C 25% 1019.4 hPa 0 mm - 112 W/m² -
1787951412 32.22° C 26% 1019.4 hPa 0 mm - 123 W/m² -
1787951112 32.22° C 24% 1019.4 hPa 0 mm - 161 W/m² -
1787950811 32.22° C 24% 1019.4 hPa 0 mm - 209 W/m² -
1787950510 32.78° C 26% 1019.4 hPa 0 mm - 244 W/m² -
1787950209 33.33° C 22% 1019.4 hPa 0 mm - 311 W/m² -
1787949909 34.44° C 22% 1019.4 hPa 0 mm - 286 W/m² -
1787949608 35° C 21% 1019.4 hPa 0 mm - 257 W/m² -
1787949307 35.56° C 21% 1019.2 hPa 0 mm - 970 W/m² -
1787949006 35° C 25% 1019.2 hPa 0 mm - 968 W/m² -
1787948706 34.44° C 22% 1019.2 hPa 0 mm - 918 W/m² -
1787948405 34.44° C 20% 1019.4 hPa 0 mm - 950 W/m² -
1787948104 34.44° C 21% 1019.5 hPa 0 mm - 601 W/m² -
1787947803 34.44° C 22% 1019.6 hPa 0 mm - 751 W/m² -
1787947503 34.44° C 21% 1019.6 hPa 0 mm - 999 W/m² -
1787947202 34.44° C 23% 1019.7 hPa 0 mm - 999 W/m² -
1787946902 33.89° C 21% 1019.7 hPa 0 mm - 999 W/m² -
1787946601 33.89° C 21% 1019.8 hPa 0 mm - 999 W/m² -
1787946300 33.33° C 26% 1019.9 hPa 0 mm - 999 W/m² -
1787945999 33.33° C 22% 1019.9 hPa 0 mm - 997 W/m² -
1787945698 32.78° C 21% 1020.1 hPa 0 mm - 994 W/m² -
1787945398 32.78° C 22% 1020.1 hPa 0 mm - 436 W/m² -
1787945097 33.33° C 22% 1020.1 hPa 0 mm - 363 W/m² -
1787944796 33.33° C 22% 1020.1 hPa 0 mm - 999 W/m² -

* Rain latest hour (hover to see other rain measurements)
** Current wind speed in m/s (hover to see current wind gust speed)